Waarnemingen

Advertentie
Mijn weer
Oostende Airport, België (6407): temperatuur & dauwpunt: 09.08.2018 15:00:00 - 15.08.2018 15:00:00 (CEST)Oostende Airport, België (6407): windsnelheid & windstoten: 09.08.2018 15:00:00 - 15.08.2018 15:00:00 (CEST)Oostende Airport, België (6407): windrichting: 09.08.2018 15:00:00 - 15.08.2018 15:00:00 (CEST)Oostende Airport, België (6407): luchtdruk: 09.08.2018 15:00:00 - 15.08.2018 15:00:00 (CEST)Oostende Airport, België (6407): zicht: 09.08.2018 15:00:00 - 15.08.2018 15:00:00 (CEST)
Datum & Tijd tt [°C] td [°C] ff [km/u] ff [kn] fx [km/u] fx [kn] dd ppp [hPa] vv [km]
15.08.2018 15:00:00 19,6 15,1 18 10 32 18 ZW 1020,0 10
15.08.2018 14:00:00 18,9 15,3 18 10 - - ZW 1019,9 10
15.08.2018 13:00:00 17,0 15,0 11 6 25 14 ZW 1020,1 5
15.08.2018 12:00:00 17,1 14,3 16 9 29 16 WZW 1020,1 10
15.08.2018 11:00:00 18,0 13,8 22 12 - - W 1020,2 10
15.08.2018 10:00:00 18,1 13,7 22 12 36 19 W 1019,8 10
15.08.2018 09:00:00 17,5 14,0 26 14 36 19 WZW 1019,3 10
15.08.2018 08:00:00 17,4 15,1 16 9 - - WZW 1018,7 8
15.08.2018 07:00:00 16,6 14,5 13 7 22 12 ZW 1018,5 6
15.08.2018 06:00:00 16,2 14,2 15 8 22 12 ZW 1018,3 10
15.08.2018 05:00:00 16,4 14,2 13 7 - - ZW 1018,4 10
15.08.2018 04:00:00 17,2 14,8 15 8 22 12 ZW 1018,5 10
15.08.2018 03:00:00 16,8 14,4 15 8 22 12 ZW 1018,7 10
15.08.2018 02:00:00 16,6 14,1 15 8 - - ZZW 1018,9 10
15.08.2018 01:00:00 16,4 13,4 15 8 18 10 ZZW 1018,8 10
15.08.2018 00:00:00 16,5 13,3 11 6 14 8 ZZW 1018,8 10
14.08.2018 23:00:00 16,3 13,0 11 6 - - ZZW 1018,7 10
14.08.2018 22:00:00 16,7 13,4 13 7 18 10 ZW 1018,8 10
14.08.2018 21:00:00 18,2 13,6 13 7 32 18 ZW 1018,4 10
14.08.2018 20:00:00 19,3 14,9 26 14 - - W 1018,2 10
14.08.2018 19:00:00 19,2 14,6 24 13 36 19 W 1018,3 10
14.08.2018 18:00:00 19,6 13,8 28 15 36 19 W 1018,2 10
14.08.2018 17:00:00 19,9 13,0 26 14 - - W 1018,2 10
14.08.2018 16:00:00 19,8 13,2 24 13 32 18 W 1018,2 10
14.08.2018 15:00:00 20,0 13,1 26 14 36 19 W 1018,1 10
14.08.2018 14:00:00 19,8 14,0 26 14 - - W 1017,5 10
14.08.2018 13:00:00 19,3 14,2 26 14 32 18 W 1016,9 10
14.08.2018 12:00:00 19,5 14,9 22 12 29 16 W 1016,7 10
14.08.2018 11:00:00 18,7 14,9 21 11 - - W 1016,1 10
14.08.2018 10:00:00 18,4 14,9 18 10 32 18 WNW 1015,6 10
14.08.2018 09:00:00 18,3 15,4 24 13 32 18 WNW 1014,8 10
14.08.2018 08:00:00 18,4 15,5 21 11 - - WNW 1014,0 10
14.08.2018 07:00:00 18,3 15,3 15 8 32 18 NW 1013,3 10
14.08.2018 06:00:00 18,0 15,4 18 10 29 16 NW 1012,8 10
14.08.2018 05:00:00 17,9 15,4 21 11 - - NW 1012,3 10
14.08.2018 04:00:00 18,4 15,7 22 12 36 19 NW 1011,9 10
14.08.2018 03:00:00 18,7 15,8 24 13 36 19 WNW 1011,3 10
14.08.2018 02:00:00 18,1 16,0 18 10 - - WZW 1011,0 10
14.08.2018 01:00:00 17,9 15,8 22 12 32 18 WZW 1010,5 10
14.08.2018 00:00:00 17,5 15,3 21 11 36 19 WZW 1010,2 10
13.08.2018 23:00:00 17,8 15,6 22 12 - - WZW 1009,8 10
13.08.2018 22:00:00 18,1 15,6 24 13 43 23 WZW 1009,4 10
13.08.2018 21:00:00 18,4 15,8 24 13 47 25 WZW 1009,0 10
13.08.2018 20:00:00 19,2 16,1 34 18 - - W 1008,5 10
13.08.2018 19:00:00 19,7 16,3 31 17 47 25 W 1008,2 10
13.08.2018 18:00:00 20,4 15,7 31 17 42 23 W 1007,9 10
13.08.2018 17:00:00 20,7 16,0 31 17 - - W 1007,7 10
13.08.2018 16:00:00 20,3 15,4 28 15 40 21 W 1007,7 10
13.08.2018 15:00:00 19,5 15,2 26 14 36 19 W 1007,7 10
13.08.2018 14:00:00 18,8 15,0 22 12 - - W 1007,3 10
13.08.2018 13:00:00 19,5 15,2 22 12 32 18 WZW 1007,0 10
13.08.2018 12:00:00 18,0 14,8 24 13 40 21 W 1006,9 10
13.08.2018 11:00:00 19,2 16,0 22 12 - - WZW 1006,5 10
13.08.2018 10:00:00 17,8 15,5 21 11 25 14 ZW 1006,2 10
13.08.2018 09:00:00 16,4 14,6 15 8 25 14 ZZW 1006,1 8
13.08.2018 08:00:00 16,1 14,4 16 9 - - Z 1006,1 8
13.08.2018 07:00:00 16,4 14,8 16 9 25 14 Z 1006,4 4,5
13.08.2018 06:00:00 16,4 14,4 9 5 14 8 Z 1005,8 10
13.08.2018 05:00:00 16,6 14,5 11 6 - - Z 1006,3 10
13.08.2018 04:00:00 16,5 14,3 11 6 14 8 ZZO 1006,9 10
13.08.2018 03:00:00 16,7 14,9 8 4 11 6 ZO 1007,4 10
13.08.2018 02:00:00 17,2 15,1 9 5 - - ZZO 1008,2 10
13.08.2018 01:00:00 17,9 15,3 5 3 7 4 ZZO 1008,7 10
13.08.2018 00:00:00 19,1 13,5 4 2 7 4 - 1008,8 10
12.08.2018 23:00:00 19,1 14,8 4 2 - - - 1009,3 10
12.08.2018 22:00:00 19,9 15,1 8 4 11 6 NW 1009,5 10
12.08.2018 21:00:00 20,3 14,5 8 4 25 14 NNW 1009,5 10
12.08.2018 20:00:00 20,7 14,3 16 9 - - NW 1009,7 10
12.08.2018 19:00:00 24,1 12,9 11 6 29 16 Z 1010,1 10
12.08.2018 18:00:00 25,2 12,3 22 12 29 16 Z 1010,7 10
12.08.2018 17:00:00 25,9 11,4 21 11 - - Z 1011,2 10
12.08.2018 16:00:00 25,8 11,3 24 13 36 19 Z 1012,0 10
12.08.2018 15:00:00 26,0 11,8 24 13 40 21 ZZW 1012,7 10
12.08.2018 14:00:00 24,9 11,6 26 14 - - Z 1013,4 10
12.08.2018 13:00:00 23,7 11,9 26 14 40 21 Z 1014,0 10
12.08.2018 12:00:00 22,3 11,8 24 13 36 19 Z 1014,6 10
12.08.2018 11:00:00 20,4 10,8 24 13 - - Z 1015,0 10
12.08.2018 10:00:00 18,9 10,0 21 11 36 19 Z 1015,3 10
12.08.2018 09:00:00 18,1 10,1 22 12 29 16 Z 1015,6 10
12.08.2018 08:00:00 16,6 10,2 18 10 - - Z 1016,1 10
12.08.2018 07:00:00 16,0 10,1 16 9 25 14 Z 1016,4 10
12.08.2018 06:00:00 15,2 10,3 14 8 22 12 Z 1016,5 30
12.08.2018 05:00:00 15,5 10,3 11 6 - - ZZO 1017,3 10
12.08.2018 04:00:00 15,2 11,2 9 5 14 8 ZO 1018,2 10
12.08.2018 03:00:00 15,8 12,2 8 4 11 6 ZZO 1019,0 10
12.08.2018 02:00:00 15,8 12,0 9 5 - - ZZO 1019,7 10
12.08.2018 01:00:00 15,4 11,9 9 5 11 6 ZO 1020,4 10
12.08.2018 00:00:00 14,9 10,9 8 4 11 6 ZO 1020,9 10
11.08.2018 23:00:00 14,6 11,1 4 2 - - ZZO 1021,3 10
11.08.2018 22:00:00 15,8 10,2 8 4 7 4 ZO 1021,7 10
11.08.2018 21:00:00 17,0 10,5 4 2 7 4 - 1022,1 10
11.08.2018 20:00:00 17,4 8,9 4 2 - - - 1022,4 10
11.08.2018 19:00:00 18,4 9,5 9 5 18 10 WNW 1022,9 10
11.08.2018 18:00:00 18,6 10,4 13 7 18 10 NW 1023,0 10
11.08.2018 17:00:00 18,3 9,6 13 7 - - WNW 1023,4 10
11.08.2018 16:00:00 18,9 10,1 13 7 25 14 WNW 1024,0 10
11.08.2018 15:00:00 18,1 8,4 15 8 25 14 WNW 1024,2 10
11.08.2018 14:00:00 18,3 9,1 18 10 - - W 1024,5 30
11.08.2018 13:00:00 18,2 8,7 18 10 29 16 W 1024,6 10
11.08.2018 12:00:00 17,5 9,2 21 11 29 16 W 1024,6 10
11.08.2018 11:00:00 17,3 10,2 21 11 - - W 1024,4 10
11.08.2018 10:00:00 15,8 9,4 18 10 29 16 W 1024,2 10
11.08.2018 09:00:00 16,4 9,7 18 10 29 16 W 1023,6 10
11.08.2018 08:00:00 13,5 10,2 13 7 - - W 1023,1 10
11.08.2018 07:00:00 11,4 8,9 11 6 25 14 WNW 1022,5 10
11.08.2018 06:00:00 14,4 8,4 16 9 32 18 W 1022,2 10
11.08.2018 05:00:00 14,3 9,2 18 10 - - W 1021,9 10
11.08.2018 04:00:00 14,2 9,0 16 9 32 18 WNW 1021,8 10
11.08.2018 03:00:00 14,9 9,7 18 10 32 18 WNW 1021,6 10
11.08.2018 02:00:00 15,0 10,6 22 12 - - W 1021,1 10
11.08.2018 01:00:00 13,0 10,8 16 9 25 14 ZW 1020,8 10
11.08.2018 00:00:00 12,7 10,2 18 10 29 16 ZW 1020,4 10
10.08.2018 23:00:00 12,9 10,9 16 9 - - ZW 1020,2 10
10.08.2018 22:00:00 12,9 11,1 22 12 50 27 ZW 1020,1 6
10.08.2018 21:00:00 15,1 11,6 31 17 65 35 ZW 1019,5 4,0
10.08.2018 20:00:00 14,8 12,0 46 25 - - ZW 1020,1 7
10.08.2018 19:00:00 16,9 11,3 28 15 58 31 ZW 1019,4 10
10.08.2018 18:00:00 17,8 11,0 34 18 58 31 ZW 1019,9 10
10.08.2018 17:00:00 19,5 8,1 37 20 - - ZW 1019,8 10
10.08.2018 16:00:00 20,6 8,8 37 20 58 31 ZZW 1020,3 10
10.08.2018 15:00:00 18,3 12,0 29 16 50 27 ZZW 1020,9 10
10.08.2018 14:00:00 19,2 11,8 26 14 - - ZZW 1021,1 10
10.08.2018 13:00:00 17,4 11,2 29 16 40 21 ZW 1021,4 10
10.08.2018 12:00:00 17,6 11,0 28 15 40 21 ZW 1021,3 10
10.08.2018 11:00:00 16,1 11,1 22 12 - - ZZW 1021,2 10
10.08.2018 10:00:00 14,3 11,1 22 12 43 23 ZW 1020,8 10
10.08.2018 09:00:00 15,0 11,5 22 12 36 19 ZW 1020,5 10
10.08.2018 08:00:00 12,8 10,2 18 10 - - ZZW 1020,1 10
10.08.2018 07:00:00 12,4 9,1 16 9 36 19 ZW 1019,4 10
10.08.2018 06:00:00 12,1 9,0 16 9 22 12 ZW 1019,0 10
10.08.2018 05:00:00 12,6 10,6 16 9 - - ZW 1018,7 10
10.08.2018 04:00:00 11,5 9,5 11 6 18 10 ZZW 1018,8 10
10.08.2018 03:00:00 11,8 9,5 8 4 14 8 Z 1018,6 10
10.08.2018 02:00:00 11,8 9,5 11 6 - - ZZW 1018,5 10
10.08.2018 01:00:00 12,8 10,2 16 9 29 16 ZW 1018,1 10
10.08.2018 00:00:00 15,5 10,9 21 11 29 16 W 1017,2 10
09.08.2018 23:00:00 15,1 10,5 22 12 - - WNW 1016,2 10
09.08.2018 22:00:00 15,2 11,4 31 17 54 29 NW 1015,5 10
09.08.2018 21:00:00 15,4 12,3 39 21 65 35 WNW 1013,7 7
09.08.2018 20:00:00 15,6 13,7 46 25 - - WNW 1012,1 3,5
09.08.2018 19:00:00 16,0 14,1 36 19 58 31 WNW 1010,3 5
09.08.2018 18:00:00 16,4 14,2 28 15 43 23 NNW 1008,9 8
09.08.2018 17:00:00 16,1 14,2 26 14 - - NNW 1008,8 3,4
09.08.2018 16:00:00 16,4 14,7 21 11 32 18 N 1008,2 3,0
09.08.2018 15:00:00 16,5 14,5 15 8 25 14 NO 1008,7 3,2

tt = temperatuur
td = dauwpunt
ff = windsnelheid
fx = windstoten
dd = windrichting
ppp = luchtdruk
vv = zicht

Weerstations in de omgeving